Location: Wanzleben
(52.0609°N, 11.4408°E)
Time: 01:29:13
(UTC+00:00)

COSMOS 2406 - Pass Details

Date: 19 January 2021
Orbit: 841 x 865 km, 71.0° (Epoch: 05 March)

Event Time Altitude Azimuth Distance (km) Brightness Sun altitude
Rises 19:19:16 0° 328° (NNW) 3,460 6.9 -33.2°
Reaches altitude 10° 19:21:45 10° 326° (NW) 2,519 6.1 -33.6°
Enters shadow 19:25:42 44° 311° (NW) 1,190 4.2 -34.2°
